Regional Weather Roundup
Issued by NWS

Home | Current Version | Previous Version | Graphics & Text | Print | Product List | Glossary On
Versions: 1 2 3 4 5 6 7 8 9 10 11 12 13 14 15 16 17 18 19 20 21 22 23 24 25 26 27 28 29 30 31 32 33 34 35 36 37 38 39 40 41 42 43 44 45 46 47 48 49 50
522
ASUS43 KIND 051809
RWRIN

WEATHER ROUNDUP FOR INDIANA
NATIONAL WEATHER SERVICE INDIANAPOLIS IN
100 PM EST FRI FEB 05 2016

NOTE: "FAIR" INDICATES FEW OR NO CLOUDS BELOW 12,000 FEET WITH NO
SIGNIFICANT WEATHER AND/OR OBSTRUCTIONS TO VISIBILITY.

* - STATION DOES NOT REPORT WEATHER SUCH AS PRECIPITATION OR FOG.

+ - STATION NOT QUALITY CONTROLLED BY THE NATIONAL WEATHER SERVICE.
    USE DATA WITH CAUTION...ESPECIALLY DEWPOINT AND RELATIVE
    HUMIDITY OBSERVATIONS.

INZ001>003-010>013-019-020-051900-
NORTHWEST INDIANA

CITY           SKY/WX    TMP DP  RH WIND       PRES   REMARKS
GARY /AIRPORT/ CLOUDY    34  25  69 N8        30.35F WCI  27
LA PORTE +     CLOUDY    33  29  86 W8        30.33F WCI  26
6HR MIN TEMP:  28; 6HR MAX TEMP:  33;

MICHIGAN CITY+ CLOUDY    32  28  86 NW8       30.33F WCI  25
MONTICELLO +   CLOUDY    31  19  60 W12       30.35F WCI  22
6HR MIN TEMP:  23; 6HR MAX TEMP:  32;

RENSSELAER +   CLOUDY    32  25  74 W7        30.35F WCI  26
VALPARAISO     CLOUDY    33  26  75 CALM      30.33F
6HR MIN TEMP:  26; 6HR MAX TEMP:  34; 6HR PCP: TRACE;


$$

LMZ046-743>745-051900-
SOUTHERN LAKE MICHIGAN

STATION/POSITION TIME  TEMP    WIND        PRES    WAVE
                       AIR SEA DIR/SP/G            HT
                 (UTC) (F)     (DEG/KT/KT) (MB)    (FT)
BURNS HARBOR     1700   30     330/ 12/ 15 1028.1S
MICHIGAN CITY    1700   31     240/  9/  9   N/A

$$

INZ004-005-014>016-021>024-051900-
NORTH CENTRAL INDIANA

CITY           SKY/WX    TMP DP  RH WIND       PRES   REMARKS
ELKHART          N/A     32  25  74 MISG      30.32F
GOSHEN         CLOUDY    33  24  69 SW9       30.31F WCI  25
6HR MIN TEMP:  24; 6HR MAX TEMP:  34;

LOGANSPORT +   CLOUDY    32  21  64 W10       30.35F WCI  24
PERU/GRISSOM   PTSUNNY   32  25  74 W13       30.32F WCI  22
6HR MIN TEMP:  22; 6HR MAX TEMP:  34;

ROCHESTER +    CLOUDY    34  25  69 W7        30.33F WCI  28
SOUTH BEND     CLOUDY    31  25  78 SW8       30.32F WCI  23
6HR MIN TEMP:  24; 6HR MAX TEMP:  32;

WARSAW +       CLOUDY    34  25  69 SW8       30.32F WCI  27

$$

INZ006>009-017-018-025>027-051900-
NORTHEAST INDIANA

CITY           SKY/WX    TMP DP  RH WIND       PRES   REMARKS
ANGOLA *+      PTSUNNY   36  21  55 W8        30.29F
AUBURN +       PTSUNNY   36  23  60 SW3       30.31F
FORT WAYNE     PTSUNNY   37  24  59 S10       30.33F
6HR MIN TEMP:  20; 6HR MAX TEMP:  38;

HUNTINGTON +   CLOUDY    34  20  56 SW10      30.32F WCI  26
6HR MIN TEMP:  21; 6HR MAX TEMP:  35;


$$

INZ028-029-035-036-043>045-051>053-051900-
WEST CENTRAL INDIANA

CITY           SKY/WX    TMP DP  RH WIND       PRES   REMARKS
GREENCASTLE +  SUNNY     36  19  51 W5        30.35F
LAFAYETTE      CLOUDY    31  23  72 W10       30.36F WCI  22
6HR MIN TEMP:  21; 6HR MAX TEMP:  32;

TERRE HAUTE    SUNNY     35  24  64 W8        30.39F WCI  29
6HR MIN TEMP:  23; 6HR MAX TEMP:  36;


$$

INZ030>032-037>040-046>048-054>057-064-065-051900-
CENTRAL INDIANA

CITY           SKY/WX    TMP DP  RH WIND       PRES   REMARKS
ANDERSON       SUNNY     37  25  60 S12       30.34F
COLUMBUS       SUNNY     39  23  52 S12       30.37F
FISHERS *+     SUNNY     37  25  60 W7        30.34F
FRANKFORT +    CLOUDY    33  20  58 W8        30.36F WCI  26
6HR MIN TEMP:  23; 6HR MAX TEMP:  35;

GREENWOOD *+   SUNNY     41  27  56 S5        30.35F
INDIANAPOLIS   MOSUNNY   39  20  46 W12       30.33F
6HR MIN TEMP:  20; 6HR MAX TEMP:  39;

-EAGLE CREEK   SUNNY     37  23  56 SW7       30.34F
6HR MIN TEMP:  20; 6HR MAX TEMP:  37;

KOKOMO *+        N/A     36  25  64 W9        30.33F
6HR MIN TEMP:  21; 6HR MAX TEMP:  36;

MARION +       MOSUNNY   35  17  48 SW12G17   30.34F WCI  26
MT COMFORT *+  SUNNY     37  25  60 SW9       30.34F
SHELBYVILLE    SUNNY     39  23  52 S12       30.34F
6HR MIN TEMP:  24; 6HR MAX TEMP:  39;

ZIONSVILLE +   SUNNY     35  25  66 W9        30.34F WCI  28
6HR MIN TEMP:  20; 6HR MAX TEMP:  35;


$$

INZ033-034-041-042-049-050-058-059-051900-
EAST CENTRAL INDIANA

CITY           SKY/WX    TMP DP  RH WIND       PRES   REMARKS
MUNCIE         SUNNY     39  21  48 SW12G18   30.32F
6HR MIN TEMP:  23; 6HR MAX TEMP:  40;


$$

INZ060-061-067>069-081>083-085>088-051900-
SOUTHWEST INDIANA

CITY           SKY/WX    TMP DP  RH WIND       PRES   REMARKS
EVANSVILLE     SUNNY     45  26  47 S8        30.41F
6HR MIN TEMP:  27; 6HR MAX TEMP:  45;

HUNTINGBURG *+ SUNNY     43  27  52 S9        30.40F
6HR MIN TEMP:  23; 6HR MAX TEMP:  43;

WASHINGTON +   SUNNY     41  24  52 SW7       30.38F
6HR MIN TEMP:  25; 6HR MAX TEMP:  41;


$$

INZ062-063-066-070>080-084-089>092-051900-
SOUTH CENTRAL AND SOUTHEAST INDIANA

CITY           SKY/WX    TMP DP  RH WIND       PRES   REMARKS
BLOOMINGTON    SUNNY     41  23  48 SW9       30.35F
6HR MIN TEMP:  19; 6HR MAX TEMP:  41;

MADISON *+     SUNNY     41  19  42 SW10      30.41F
NORTH VERNON + SUNNY     41  19  42 CALM      30.38F
SEYMOUR +      SUNNY     43  23  45 SW13      30.38F

$$





USA.gov is the U.S. government's official web portal to all federal, state and local government web resources and services.